Location: Bou Irsane
(32.6208°N, 5.2996°W)
Time: 15:23:56
(UTC+00:00)

Daily predictions for brighter satellites

Satellite Brightness Start Highest point End
(mag) Time Altitude Azimuth Time Altitude Azimuth Time Altitude Azimuth
SL-08 RB Rocket 3.8 19:34:44 10° SSE 19:39:16 87° W 19:43:46 10° NNW
Cosmos 1782 3.3 19:35:39 10° SSE 19:39:24 40° E 19:43:08 10° NNE
SL-08 ROCKET BODY 4.5 19:35:38 10° N 19:41:29 83° W 19:47:20 10° S
SAR-Lupe-1 4.0 19:38:32 10° NNE 19:42:08 85° ESE 19:45:42 10° SSW
CZ-2C R/B 4.0 19:37:44 10° N 19:43:00 47° WNW 19:48:19 10° SW
SJ 16-02 1.9 19:40:55 10° SSE 19:44:59 37° E 19:49:05 10° NNE
PEGASUS R/B 3.1 19:43:38 10° SSE 19:46:09 78° ENE 19:48:25 10° NNW
Cosmos 1151 Rocket 3.2 19:44:24 10° S 19:48:38 55° E 19:52:55 10° NNE
Intercosmos 24 3.7 19:45:34 10° S 19:49:13 82° W 19:52:51 10° N
Cosmos 1777 Rocket 4.0 19:44:08 10° SSW 19:49:19 89° ESE 19:54:32 10° NNE
Cosmos 1933 3.8 19:45:55 10° SSW 19:49:54 66° W 19:53:54 10° N
Tianhe-1 3.3 19:47:32 10° WNW 19:50:11 25° NNW 19:52:52 10° NE
Sich 1 3.0 19:46:24 10° N 19:50:47 76° E 19:55:10 10° S
CZ-4 R/B 3.6 19:49:35 10° SSW 19:53:01 27° W 19:56:24 10° NW
SJ-6B 3.6 19:49:34 10° SE 19:53:10 35° ENE 19:56:51 10° N
Ariane Rocket 4.1 19:50:11 10° SE 19:54:21 27° ENE 19:58:32 10° NNE
Cosmos 1666 Rocket 3.9 19:51:38 10° N 19:55:49 46° E 19:59:58 10° SSE
Meteor 1-25 Rocket 4.3 19:50:09 10° N 19:56:00 73° E 20:01:47 10° SSE
Cosmos 1943 Rocket 3.9 19:53:46 10° ESE 19:56:06 13° E 19:58:27 10° ENE
MetOp-A 4.2 19:51:47 10° SSE 19:57:05 68° ENE 20:02:24 10° N
IRIS 4.2 19:55:59 10° NW 19:58:16 44° NNE 20:00:13 13° E
Cosmos 1242 Rocket 4.2 19:56:22 10° SSW 19:59:39 36° W 20:02:56 10° N
USA 308 4.3 19:56:57 10° NNW 20:00:36 26° NE 20:04:03 11° E
Helios 1A Rocket 2.9 19:59:09 10° SSE 20:03:18 89° WNW 20:07:27 10° NNW
Cosmos 2082 Rocket 3.8 20:00:22 10° NNE 20:04:21 19° ENE 20:07:52 12° E
GPS 2-04 Rocket1 2.8 20:12:30 10° WNW 20:16:41 82° NNE 20:19:40 18° ESE
ATLAS 5 CENTAUR R/B 3.5 20:12:17 10° NW 20:18:07 45° WSW 20:24:43 10° S
Cosmos 1271 Rocket 3.6 20:16:03 15° SSE 20:18:43 32° E 20:22:18 10° NNE
Cosmos 2278 Rocket 3.2 20:16:19 10° SW 20:21:47 50° WNW 20:27:16 10° N
Cosmos 1461 3.8 20:18:07 10° S 20:22:20 33° ESE 20:26:31 10° NE
Meteor 1-10 Rocket 4.5 20:22:17 10° SSE 20:27:35 46° E 20:32:58 10° NNE
USA 186 2.9 20:25:56 10° SSW 20:28:02 28° W 20:30:06 10° NW
MOS 1 4.3 20:23:46 14° SSE 20:28:32 65° ENE 20:34:10 10° N
COSMOS 2406 3.2 20:27:06 10° NNW 20:32:46 72° ENE 20:36:39 21° SSE
Delta 2 Rocket 4.1 20:28:17 10° WNW 20:33:43 67° N 20:37:18 19° E
Cosmos 1666 3.6 20:31:27 10° NNE 20:34:43 28° E 20:35:18 27° E
USA 305 3.1 20:33:00 10° NW 20:37:13 60° NE 20:39:07 30° ESE
OAO 3 Rocket 3.4 20:32:41 10° W 20:37:18 64° N 20:40:54 16° ENE
USA 267 3.3 20:33:22 21° SE 20:38:00 77° NE 20:44:33 10° NW
Cosmos 1709 Rocket 4.1 20:33:46 10° N 20:39:52 75° W 20:45:59 10° S
CZ-2C R/B 1.0 20:36:45 10° WSW 20:40:50 87° SSE 20:43:05 24° ENE
Cosmos 1812 3.0 20:37:24 10° SSW 20:41:13 69° W 20:45:04 10° N
OBJECT-B 2.2 20:38:56 12° SSW 20:41:42 37° W 20:44:44 10° NNW
Mugunghwa Rocket 4.3 20:37:41 10° WSW 20:43:41 47° S 20:46:46 27° SE
Cosmos 1515 Rocket 3.9 20:45:38 10° SSW 20:49:58 64° W 20:54:20 10° N
Meteor 2-6 Rocket 4.3 20:45:22 10° SSW 20:50:46 76° W 20:56:20 10° N
Cosmos 2074 Rocket 4.3 20:45:41 10° N 20:51:44 47° E 20:54:26 30° SE
Cosmos 1833 Rocket 2.8 20:47:39 10° NNW 20:53:18 74° WSW 20:56:43 24° S
Cosmos 2184 Rocket 4.2 20:49:19 10° N 20:55:16 48° E 20:57:40 32° SE
Cosmos 967 Rocket 4.4 20:50:01 10° SSW 20:56:17 87° WNW 21:02:34 10° NNE
USA 306 2.8 20:52:47 10° NW 20:57:03 88° SW 20:58:11 48° SE
CZ-4C R/B 3.4 20:49:30 10° NW 20:57:16 68° WSW 21:03:18 21° SSE
Cosmos 1937 Rocket 3.7 20:58:57 37° SE 21:00:21 47° ESE 21:05:18 10° NNE
Cosmos 2228 Rocket 3.0 21:02:02 44° SSE 21:03:19 68° E 21:07:46 10° NNE
Cosmos 1500 4.3 21:02:14 10° NNW 21:05:44 39° W 21:07:33 23° SSW
SPOT 1/Viking Rocket 4.0 21:05:52 37° ESE 21:06:55 42° ENE 21:11:46 10° N
Cosmos 44 4.4 21:04:14 10° N 21:09:04 33° NE 21:10:08 30° E
Resurs 01 Rocket 1.5 21:08:17 48° SSE 21:09:32 90° ENE 21:13:59 10° NNW
IGS 5A 3.3 21:11:15 62° SSE 21:11:55 86° ENE 21:16:04 10° N
MetOp-B 4.2 21:10:46 44° SE 21:12:14 62° ENE 21:17:31 10° N
Cosmos 1538 Rocket 4.5 21:07:57 10° NNW 21:13:09 57° WSW 21:15:37 30° SSW
Meteor 1-27 Rocket 3.7 21:10:39 30° S 21:13:38 76° E 21:19:33 10° NNE
BREEZE-M DEB (TANK) 2.6 21:10:37 10° NW 21:15:35 71° W 21:15:35 71° W
Cosmos 858 Rocket 4.3 21:17:46 46° S 21:19:17 72° ESE 21:24:30 10° NNE
Cosmos 1867 3.8 21:23:54 48° E 21:23:54 48° E 21:28:33 10° NE
SJ 16-02 4.4 21:21:05 10° W 21:23:40 15° WNW 21:26:15 10° NNW
SPOT 3 Rocket 3.5 21:22:24 46° S 21:23:57 77° WSW 21:29:06 10° NNW
Cosmos 1680 Rocket 3.7 21:21:18 10° N 21:26:32 55° ENE 21:26:59 53° E
USA 307 3.4 21:22:33 10° NW 21:26:40 47° SW 21:26:43 47° SW
Tianhe-1 3.7 21:25:22 10° NW 21:27:25 16° N 21:28:08 15° NNE
Iridium 4 Rocket 3.9 21:24:51 31° SSW 21:27:47 74° W 21:33:41 10° N
Cosmos 2297 4.2 21:23:20 10° SSW 21:28:56 59° WNW 21:34:33 10° NNE
Cosmos 372 Rocket 4.3 21:36:41 48° ENE 21:36:41 48° ENE 21:40:42 10° NNE
Terra 3.4 21:38:38 23° NE 21:38:38 23° NE 21:41:34 10° NNE
Cosmos 1943 Rocket 2.5 21:34:51 17° SSW 21:39:11 65° WNW 21:44:46 10° NNE
USA 308 4.1 21:36:42 10° WNW 21:40:10 33° WSW 21:40:10 33° WSW
NOSS 3-4 (A) 4.1 21:33:43 10° NW 21:41:02 70° WSW 21:43:47 44° S
NOSS 3-4 (C) 4.1 21:33:50 10° NW 21:41:09 71° WSW 21:43:52 44° S
Cosmos 2082 Rocket 2.8 21:43:16 10° NNW 21:48:39 48° WSW 21:49:44 43° SW
Cosmos 1340 Rocket 4.1 21:45:38 10° N 21:48:11 36° NNE 21:48:11 36° NNE
ATLAS 2AS CENTAUR R/B 2.5 21:47:06 10° NNW 21:54:15 84° ENE 21:55:13 68° SE
Meteor 1-11 Rocket 4.2 21:49:28 10° NNW 21:55:15 58° W 21:56:25 49° SW
Cosmos 2341 Rocket 4.3 21:49:07 10° N 21:55:10 50° ENE 21:55:10 50° ENE
ARIANE 5 R/B 3.2 21:56:25 52° NNW 21:56:25 52° NNW 21:59:43 10° NNW
SL-8 Rocket 4.5 22:01:17 10° N 22:06:45 47° ENE 22:06:45 47° ENE
Cosmos 2369 Rocket 2.2 22:08:17 72° W 22:08:24 73° WNW 22:14:03 10° NNE
ATLAS CENTAUR R/B 4.0 22:12:29 11° NNE 22:12:29 11° NNE 22:12:44 10° NNE
Cosmos 1818 3.9 22:12:40 10° NNW 22:17:15 63° NNW 22:17:15 63° NNW
SPOT 5 3.4 22:19:05 61° NNW 22:19:05 61° NNW 22:23:30 10° NNW
CZ-2C R/B 3.9 22:16:44 10° W 22:17:22 14° WNW 22:17:22 14° WNW
Cosmos 1238 Rocket 4.5 22:19:49 10° N 22:23:11 39° N 22:23:11 39° N
ERS-1 Rocket 3.8 22:29:05 48° NW 22:29:05 48° NW 22:32:53 10° NNW
Lacrosse 5 3.9 22:48:53 22° NNE 22:48:53 22° NNE 22:50:40 10° NNE
Milstar 3 3.8 22:55:53 10° W 23:07:14 54° SW 23:07:14 54° SW
Terra 4.1 23:17:31 19° WNW 23:17:31 19° WNW 23:19:19 10° NW
